BRZ121 ULLI-VCBI

Flight info

Callsign BRZ121
Flight time N/A
Altitude 35000
Route SUGIN1B SUGIN T873 TOKNU DCT OPH DCT DMD DCT TOGMO M56 BEKAS L163 RUGUS/K0869F370 M875 AMDAR/N0478F370 M875 TAPIS L509 LAJAK M881 LAKRA P500 DI A466 DPN/N0485F380 Q23 IKAVA/N0484F370 Q23 NUSRU/N0476F390 Q23 SUREK V4 MMV/N0479F380 V5 AKMIL A465 SAGOR SAGOR2A
Aircraft A339/H-SADE1E2E3GHIJ3J5M1P2RWXY/LB2D1

Departure

Time 2026-02-17 14:19
Airport Pulkovo Airport (ULLI)

Arrival

Time N/A
Airport Bandaranaike International Colombo Airport (VCBI)
Time Latitude Longitude Altitude Speed Heading
2026-02-17 13:59 59.80347 30.26582 97 ft 0 kts 287°
2026-02-17 14:12 59.80350 30.26561 97 ft 3 kts 290°
2026-02-17 14:13 59.80368 30.26510 97 ft 5 kts 319°
2026-02-17 14:13 59.80413 30.26505 97 ft 8 kts 33°
2026-02-17 14:13 59.80431 30.26622 97 ft 10 kts 97°
2026-02-17 14:13 59.80410 30.26780 97 ft 13 kts 105°
2026-02-17 14:14 59.80383 30.26970 97 ft 15 kts 107°
2026-02-17 14:14 59.80350 30.27187 97 ft 17 kts 106°
2026-02-17 14:14 59.80314 30.27429 97 ft 19 kts 106°
2026-02-17 14:15 59.80233 30.27973 97 ft 21 kts 107°
2026-02-17 14:15 59.80187 30.28265 97 ft 22 kts 109°
2026-02-17 14:15 59.80144 30.28565 97 ft 23 kts 106°
2026-02-17 14:15 59.80096 30.28876 97 ft 23 kts 106°
2026-02-17 14:16 59.80050 30.29195 97 ft 24 kts 105°
2026-02-17 14:16 59.80003 30.29519 97 ft 24 kts 106°
2026-02-17 14:16 59.79956 30.29841 97 ft 23 kts 105°
2026-02-17 14:16 59.79984 30.30087 97 ft 15 kts 45°
2026-02-17 14:17 59.80025 30.30189 97 ft 10 kts 53°
2026-02-17 14:17 59.80088 30.30269 97 ft 12 kts
2026-02-17 14:17 59.80136 30.30141 97 ft 16 kts 279°
2026-02-17 14:17 59.80199 30.29726 97 ft 59 kts 285°
2026-02-17 14:18 59.80376 30.28536 97 ft 118 kts 288°
2026-02-17 14:18 59.80660 30.26654 121 ft 163 kts 286°
2026-02-17 14:18 59.80996 30.24425 592 ft 171 kts 287°
2026-02-17 14:19 59.81657 30.19907 1785 ft 178 kts 286°
2026-02-17 14:19 59.82019 30.17472 2083 ft 192 kts 286°
2026-02-17 14:19 59.82410 30.14841 2390 ft 207 kts 286°
2026-02-17 14:19 59.82833 30.11993 2713 ft 223 kts 285°
2026-02-17 14:20 59.83280 30.08949 3128 ft 236 kts 285°
2026-02-17 14:20 59.83744 30.05795 3723 ft 239 kts 285°
2026-02-17 14:20 59.84194 30.02633 4326 ft 241 kts 281°
2026-02-17 14:20 59.84101 29.99379 4908 ft 242 kts 245°
2026-02-17 14:21 59.83040 29.96822 5483 ft 246 kts 212°
2026-02-17 14:21 59.81450 29.95652 6073 ft 250 kts 195°
2026-02-17 14:21 59.79745 29.94780 6649 ft 255 kts 197°
2026-02-17 14:21 59.78042 29.93853 7244 ft 257 kts 197°
2026-02-17 14:22 59.76316 29.92889 7879 ft 259 kts 195°
2026-02-17 14:22 59.72928 29.94719 8769 ft 279 kts 130°
2026-02-17 14:23 59.71362 30.01772 10033 ft 283 kts 112°
2026-02-17 14:23 59.70639 30.05352 10580 ft 287 kts 113°
2026-02-17 14:23 59.69845 30.09086 10861 ft 301 kts 114°
2026-02-17 14:23 59.68997 30.12955 11135 ft 315 kts 114°
2026-02-17 14:24 59.68097 30.16989 11398 ft 328 kts 114°
2026-02-17 14:24 59.67147 30.21201 11664 ft 342 kts 115°
2026-02-17 14:24 59.66161 30.25543 11920 ft 355 kts 115°
2026-02-17 14:24 59.65122 30.30094 12185 ft 368 kts 115°
2026-02-17 14:25 59.64059 30.34732 12708 ft 374 kts 114°
2026-02-17 14:25 59.62985 30.39405 13245 ft 377 kts 114°
2026-02-17 14:25 59.61910 30.44094 13887 ft 378 kts 115°
2026-02-17 14:25 59.60831 30.48771 14487 ft 380 kts 115°
2026-02-17 14:26 59.59727 30.53549 15121 ft 383 kts 115°
2026-02-17 14:26 59.58623 30.58307 15676 ft 386 kts 115°
2026-02-17 14:26 59.57499 30.63138 16301 ft 388 kts 115°
2026-02-17 14:27 59.55246 30.72794 17419 ft 393 kts 116°
2026-02-17 14:27 59.54101 30.77686 17971 ft 396 kts 116°
2026-02-17 14:27 59.52947 30.82608 18510 ft 399 kts 116°
2026-02-17 14:27 59.51780 30.87573 19045 ft 402 kts 116°
2026-02-17 14:28 59.50602 30.92574 19510 ft 406 kts 116°
2026-02-17 14:28 59.49416 30.97593 19964 ft 409 kts 116°
2026-02-17 14:28 59.48219 31.02642 20462 ft 411 kts 115°
2026-02-17 14:28 59.47001 31.07770 20922 ft 414 kts 115°
2026-02-17 14:29 59.45793 31.12848 21357 ft 416 kts 115°
2026-02-17 14:29 59.44570 31.17974 21779 ft 419 kts 115°
2026-02-17 14:29 59.43315 31.23228 22221 ft 421 kts 115°
2026-02-17 14:29 59.42086 31.28363 22617 ft 423 kts 115°
2026-02-17 14:30 59.40818 31.33644 23040 ft 425 kts 115°
2026-02-17 14:30 59.39566 31.38845 23442 ft 427 kts 115°
2026-02-17 14:31 59.35743 31.54661 24540 ft 434 kts 114°
2026-02-17 14:31 59.34441 31.60022 24897 ft 436 kts 114°
2026-02-17 14:31 59.33136 31.65377 25246 ft 437 kts 115°
2026-02-17 14:31 59.31832 31.70715 25597 ft 439 kts 115°
2026-02-17 14:32 59.30522 31.76070 25899 ft 441 kts 115°
2026-02-17 14:32 59.29184 31.81522 26173 ft 444 kts 115°
2026-02-17 14:32 59.27841 31.86978 26464 ft 446 kts 115°
2026-02-17 14:32 59.26498 31.92429 26698 ft 449 kts 115°
2026-02-17 14:33 59.25150 31.97880 26961 ft 452 kts 115°
2026-02-17 14:33 59.22412 32.08914 27533 ft 455 kts 115°
2026-02-17 14:33 59.21021 32.14498 27886 ft 455 kts 115°
2026-02-17 14:34 59.19638 32.20032 28248 ft 455 kts 114°
2026-02-17 14:34 59.18269 32.25500 28589 ft 455 kts 114°
2026-02-17 14:34 59.16888 32.31006 28896 ft 455 kts 114°
2026-02-17 14:35 59.14105 32.42057 29483 ft 456 kts 114°
2026-02-17 14:35 59.12700 32.47616 29769 ft 457 kts 114°
2026-02-17 14:35 59.11309 32.53100 30055 ft 457 kts 114°
2026-02-17 14:35 59.09906 32.58617 30318 ft 458 kts 114°
2026-02-17 14:36 59.08502 32.64131 30588 ft 459 kts 114°
2026-02-17 14:36 59.07082 32.69690 30844 ft 459 kts 115°
2026-02-17 14:36 59.05662 32.75242 31096 ft 460 kts 115°
2026-02-17 14:36 59.04259 32.80709 31336 ft 460 kts 115°
2026-02-17 14:37 59.02831 32.86261 31600 ft 461 kts 115°
2026-02-17 14:37 59.01407 32.91788 31846 ft 461 kts 115°
2026-02-17 14:37 58.99998 32.97242 32086 ft 461 kts 115°
2026-02-17 14:37 58.98542 33.02863 32348 ft 462 kts 115°
2026-02-17 14:38 58.97098 33.08421 32567 ft 462 kts 115°
2026-02-17 14:38 58.95660 33.13892 32788 ft 462 kts 116°
2026-02-17 14:38 58.94057 33.19347 32981 ft 463 kts 120°
2026-02-17 14:39 58.90397 33.29594 33416 ft 464 kts 127°
2026-02-17 14:39 58.88352 33.34371 33653 ft 465 kts 130°
2026-02-17 14:39 58.86157 33.38928 33778 ft 467 kts 134°
2026-02-17 14:39 58.83831 33.43269 33874 ft 468 kts 135°
2026-02-17 14:40 58.81483 33.47585 34043 ft 469 kts 135°
2026-02-17 14:40 58.79133 33.51912 34192 ft 470 kts 135°
2026-02-17 14:40 58.74442 33.60553 34492 ft 471 kts 135°
2026-02-17 14:41 58.72066 33.64914 34620 ft 472 kts 135°
2026-02-17 14:41 58.69694 33.69266 34783 ft 472 kts 136°
2026-02-17 14:41 58.67341 33.73571 34949 ft 473 kts 136°
2026-02-17 14:41 58.64953 33.77935 35056 ft 474 kts 137°
2026-02-17 14:42 58.62558 33.82302 35085 ft 475 kts 137°
2026-02-17 14:42 58.57815 33.90924 35122 ft 474 kts 137°
2026-02-17 14:43 58.50630 34.03916 35044 ft 475 kts 137°
2026-02-17 14:43 58.45849 34.12529 35069 ft 474 kts 137°
2026-02-17 14:44 58.41052 34.21127 35072 ft 475 kts 137°
2026-02-17 14:44 58.36278 34.29654 35095 ft 475 kts 137°
2026-02-17 14:45 58.31450 34.38248 35069 ft 475 kts 137°
2026-02-17 14:45 58.26620 34.46749 35047 ft 474 kts 139°
2026-02-17 14:46 58.21504 34.54385 35071 ft 473 kts 145°
2026-02-17 14:47 58.13040 34.63685 35076 ft 471 kts 155°
2026-02-17 14:47 58.07030 34.68579 35054 ft 469 kts 158°
2026-02-17 14:48 58.01049 34.73407 35071 ft 469 kts 158°
2026-02-17 14:48 57.95065 34.78233 35071 ft 470 kts 158°
2026-02-17 14:49 57.89101 34.83019 35070 ft 470 kts 158°
2026-02-17 14:49 57.83124 34.87798 35074 ft 470 kts 158°
2026-02-17 14:50 57.77110 34.92590 35082 ft 470 kts 158°
2026-02-17 14:50 57.71164 34.97556 35084 ft 470 kts 154°
2026-02-17 14:51 57.62730 35.06496 35091 ft 472 kts 151°
2026-02-17 14:51 57.57085 35.12593 35093 ft 472 kts 151°
2026-02-17 14:52 57.51426 35.18692 35071 ft 472 kts 151°
2026-02-17 14:52 57.45773 35.24764 35073 ft 473 kts 151°
2026-02-17 14:53 57.40081 35.30850 35080 ft 473 kts 151°
2026-02-17 14:53 57.34419 35.36888 35065 ft 473 kts 152°
2026-02-17 14:54 57.28710 35.42952 35083 ft 474 kts 152°
2026-02-17 14:55 57.20143 35.52012 35101 ft 475 kts 152°
2026-02-17 14:55 57.14474 35.57985 35085 ft 474 kts 152°
2026-02-17 14:56 57.08746 35.63988 35067 ft 474 kts 152°
2026-02-17 14:56 57.03028 35.69967 35088 ft 476 kts 153°
2026-02-17 14:57 56.97305 35.75928 35101 ft 475 kts 153°
2026-02-17 14:57 56.91617 35.81832 35027 ft 474 kts 153°
2026-02-17 14:58 56.85980 35.87670 35036 ft 474 kts 153°
2026-02-17 14:58 56.80231 35.93591 35131 ft 474 kts 153°
2026-02-17 14:59 56.71801 36.02243 35016 ft 475 kts 153°
2026-02-17 14:59 56.66059 36.08109 35082 ft 475 kts 153°
2026-02-17 15:00 56.60335 36.13932 35109 ft 476 kts 153°
2026-02-17 15:00 56.54600 36.19758 35095 ft 475 kts 153°
2026-02-17 15:01 56.48817 36.25609 35069 ft 475 kts 153°
2026-02-17 15:01 56.43102 36.31368 35071 ft 474 kts 153°
2026-02-17 15:02 56.37467 36.37609 35099 ft 477 kts 148°
2026-02-17 15:03 56.29798 36.48933 35043 ft 482 kts 139°
2026-02-17 15:03 56.24911 36.57176 35039 ft 482 kts 139°
2026-02-17 15:04 56.20052 36.65306 35057 ft 481 kts 140°
2026-02-17 15:04 56.15159 36.73454 35038 ft 480 kts 140°
2026-02-17 15:05 56.10279 36.81548 35040 ft 479 kts 140°
2026-02-17 15:05 56.05417 36.89583 35068 ft 479 kts 140°
2026-02-17 15:06 56.00529 36.97636 35067 ft 479 kts 140°
2026-02-17 15:06 55.95714 37.05541 35059 ft 480 kts 140°
2026-02-17 15:07 55.88349 37.17578 35063 ft 480 kts 141°
2026-02-17 15:07 55.83419 37.25596 35065 ft 480 kts 141°
2026-02-17 15:08 55.78381 37.33186 35039 ft 479 kts 143°
2026-02-17 15:08 55.73275 37.40754 35073 ft 479 kts 143°
2026-02-17 15:09 55.68187 37.48278 35065 ft 479 kts 143°
2026-02-17 15:09 55.63066 37.55821 35072 ft 479 kts 143°
2026-02-17 15:10 55.57975 37.63287 35054 ft 479 kts 143°
2026-02-17 15:11 55.50301 37.74500 35070 ft 479 kts 144°
2026-02-17 15:11 55.45159 37.81979 35044 ft 479 kts 144°
2026-02-17 15:12 55.40052 37.89324 35050 ft 478 kts 146°
2026-02-17 15:12 55.34635 37.95957 35061 ft 476 kts 151°
2026-02-17 15:13 55.29180 38.02169 35054 ft 477 kts 151°
2026-02-17 15:13 55.23662 38.08455 35052 ft 476 kts 151°
2026-02-17 15:14 55.18132 38.14737 35062 ft 476 kts 151°
2026-02-17 15:14 55.12573 38.21028 35057 ft 476 kts 151°
2026-02-17 15:15 55.04288 38.30362 35055 ft 476 kts 151°
2026-02-17 15:15 54.98712 38.36621 35058 ft 476 kts 151°
2026-02-17 15:16 54.93176 38.42812 35053 ft 476 kts 151°
2026-02-17 15:16 54.87631 38.48994 35053 ft 476 kts 151°
2026-02-17 15:17 54.82074 38.55167 35031 ft 476 kts 152°
2026-02-17 15:17 54.76522 38.61312 35068 ft 476 kts 151°
2026-02-17 15:18 54.70970 38.67448 35019 ft 475 kts 153°
2026-02-17 15:19 54.62629 38.76613 35047 ft 475 kts 153°
2026-02-17 15:19 54.57106 38.82661 35035 ft 475 kts 153°
2026-02-17 15:20 54.51529 38.88750 35028 ft 475 kts 153°
2026-02-17 15:20 54.45995 38.94901 35045 ft 478 kts 149°
2026-02-17 15:21 54.41067 39.02356 35023 ft 487 kts 137°
2026-02-17 15:21 54.36961 39.11654 35015 ft 496 kts 125°
2026-02-17 15:22 54.33971 39.22240 35043 ft 501 kts 115°
2026-02-17 15:22 54.31385 39.33355 35020 ft 501 kts 116°
2026-02-17 15:23 54.27403 39.49828 35018 ft 502 kts 116°
2026-02-17 15:23 54.24710 39.60809 35048 ft 503 kts 116°
2026-02-17 15:24 54.22016 39.71767 35019 ft 503 kts 117°
2026-02-17 15:24 54.19302 39.82740 35024 ft 504 kts 117°
2026-02-17 15:25 54.16565 39.93760 35028 ft 504 kts 117°
2026-02-17 15:25 54.13832 40.04695 35033 ft 505 kts 117°
2026-02-17 15:26 54.11270 40.15816 35039 ft 508 kts 112°
2026-02-17 15:27 54.08250 40.33035 35041 ft 509 kts 110°
2026-02-17 15:27 54.06244 40.44639 35028 ft 511 kts 110°
2026-02-17 15:28 54.04225 40.56164 35034 ft 511 kts 110°
2026-02-17 15:28 54.02197 40.67648 35023 ft 512 kts 111°
2026-02-17 15:29 54.00143 40.79214 35029 ft 511 kts 111°
2026-02-17 15:29 53.98092 40.90683 35032 ft 512 kts 111°
2026-02-17 15:30 53.96010 41.02243 35024 ft 511 kts 111°
2026-02-17 15:30 53.94051 41.13773 35038 ft 513 kts 109°
2026-02-17 15:31 53.91222 41.31193 35017 ft 513 kts 109°
2026-02-17 15:31 53.89301 41.42820 35039 ft 513 kts 109°
2026-02-17 15:32 53.87366 41.54406 35020 ft 514 kts 109°
2026-02-17 15:32 53.85417 41.66000 35014 ft 514 kts 110°
2026-02-17 15:33 53.83456 41.77575 35025 ft 514 kts 110°
2026-02-17 15:33 53.81472 41.89153 35021 ft 514 kts 110°
2026-02-17 15:34 53.79476 42.00726 35026 ft 515 kts 110°
2026-02-17 15:35 53.76461 42.18078 35014 ft 514 kts 110°
2026-02-17 15:35 53.74448 42.29579 35008 ft 514 kts 110°
2026-02-17 15:36 53.72416 42.41101 34997 ft 514 kts 110°
2026-02-17 15:36 53.70368 42.52656 34998 ft 514 kts 110°
2026-02-17 15:37 53.68324 42.64105 35007 ft 514 kts 110°
2026-02-17 15:37 53.66408 42.75735 34990 ft 515 kts 109°
2026-02-17 15:38 53.64594 42.87321 35019 ft 515 kts 109°
2026-02-17 15:38 53.62769 42.98888 34972 ft 516 kts 109°
2026-02-17 15:39 53.59986 43.16336 34968 ft 516 kts 109°
2026-02-17 15:39 53.58109 43.28000 34943 ft 517 kts 109°
2026-02-17 15:40 53.56227 43.39626 34962 ft 518 kts 109°
2026-02-17 15:40 53.54337 43.51218 34938 ft 517 kts 109°
2026-02-17 15:41 53.52430 43.62812 34948 ft 519 kts 109°
2026-02-17 15:41 53.50515 43.74415 34967 ft 518 kts 110°
2026-02-17 15:42 53.48582 43.86011 34986 ft 518 kts 110°
2026-02-17 15:43 53.45658 44.03417 34925 ft 518 kts 110°
2026-02-17 15:43 53.43685 44.15057 34970 ft 520 kts 110°
2026-02-17 15:44 53.41713 44.26630 34940 ft 520 kts 110°
2026-02-17 15:44 53.39722 44.38240 34987 ft 521 kts 110°
2026-02-17 15:45 53.37723 44.49824 34933 ft 520 kts 110°
2026-02-17 15:45 53.35711 44.61381 34940 ft 520 kts 110°
2026-02-17 15:46 53.33694 44.72919 34936 ft 519 kts 111°
2026-02-17 15:46 53.31661 44.84451 34933 ft 521 kts 111°
2026-02-17 15:47 53.28582 45.01779 34961 ft 521 kts 111°
2026-02-17 15:47 53.26322 45.13166 34949 ft 519 kts 115°
2026-02-17 15:48 53.23853 45.24486 34960 ft 519 kts 115°
2026-02-17 15:48 53.21391 45.35744 34929 ft 519 kts 115°
2026-02-17 15:49 53.18926 45.46984 34935 ft 520 kts 115°
2026-02-17 15:49 53.16435 45.58296 34935 ft 520 kts 115°
2026-02-17 15:50 53.13951 45.69513 34915 ft 520 kts 116°
2026-02-17 15:51 53.10193 45.86359 34917 ft 522 kts 116°
2026-02-17 15:51 53.07690 45.97642 34929 ft 522 kts 115°
2026-02-17 15:52 53.05179 46.08933 34907 ft 521 kts 116°
2026-02-17 15:52 53.02658 46.20178 34891 ft 522 kts 116°
2026-02-17 15:53 53.00127 46.31416 34868 ft 522 kts 116°
2026-02-17 15:53 52.97598 46.42584 34899 ft 521 kts 116°
2026-02-17 15:54 52.95039 46.53798 34866 ft 522 kts 116°
2026-02-17 15:54 52.91183 46.70620 34932 ft 522 kts 117°
2026-02-17 15:55 52.88605 46.81799 34839 ft 522 kts 117°
2026-02-17 15:55 52.86019 46.92942 34934 ft 523 kts 117°
2026-02-17 15:56 52.83458 47.03950 34874 ft 523 kts 117°
2026-02-17 15:56 52.80878 47.15123 34782 ft 524 kts 115°
2026-02-17 15:57 52.79656 47.20831 34921 ft 526 kts 115°
2026-02-17 15:57 52.78463 47.26528 35026 ft 525 kts 115°
2026-02-17 15:57 52.77279 47.32168 34860 ft 525 kts 115°
2026-02-17 15:57 52.76073 47.37852 34857 ft 525 kts 115°
2026-02-17 15:58 52.73643 47.49167 34867 ft 525 kts 115°
2026-02-17 15:58 52.71200 47.60439 34980 ft 525 kts 115°
2026-02-17 15:59 52.69972 47.66118 35003 ft 526 kts 116°
2026-02-17 15:59 52.68759 47.71718 34895 ft 526 kts 116°
2026-02-17 15:59 52.67540 47.77329 34905 ft 525 kts 116°
2026-02-17 15:59 52.66309 47.82965 34769 ft 525 kts 116°
2026-02-17 16:00 52.65064 47.88656 34813 ft 525 kts 116°
2026-02-17 16:00 52.62614 47.99843 34986 ft 525 kts 116°
2026-02-17 16:00 52.61406 48.05327 34875 ft 526 kts 116°
2026-02-17 16:01 52.60152 48.10987 34823 ft 526 kts 116°
2026-02-17 16:01 52.58895 48.16641 34956 ft 527 kts 116°
2026-02-17 16:01 52.57640 48.22272 34950 ft 526 kts 116°
2026-02-17 16:02 52.55126 48.33492 34955 ft 526 kts 116°
2026-02-17 16:02 52.51334 48.50308 34893 ft 528 kts 116°
2026-02-17 16:03 52.48783 48.61575 34975 ft 529 kts 116°
2026-02-17 16:03 52.46219 48.72836 34977 ft 529 kts 117°
2026-02-17 16:04 52.43642 48.84079 34950 ft 529 kts 117°
2026-02-17 16:04 52.41060 48.95293 34972 ft 529 kts 117°
2026-02-17 16:05 52.38474 49.06467 34943 ft 528 kts 117°
2026-02-17 16:05 52.35851 49.17710 34961 ft 530 kts 117°
2026-02-17 16:06 52.33225 49.28896 34882 ft 530 kts 117°
2026-02-17 16:07 52.29252 49.45699 34921 ft 532 kts 118°
2026-02-17 16:07 52.26571 49.56952 34888 ft 531 kts 118°
2026-02-17 16:08 52.23196 49.67306 34895 ft 519 kts 129°
2026-02-17 16:08 52.17627 49.82420 34959 ft 521 kts 129°
2026-02-17 16:09 52.13949 49.92533 34941 ft 522 kts 129°
2026-02-17 16:09 52.10270 50.02692 34932 ft 523 kts 129°
2026-02-17 16:10 52.06605 50.12808 34935 ft 522 kts 129°
2026-02-17 16:11 52.01067 50.28016 34932 ft 524 kts 129°
2026-02-17 16:11 51.97440 50.37941 34911 ft 522 kts 130°
2026-02-17 16:12 51.93710 50.48076 34907 ft 525 kts 130°
2026-02-17 16:12 51.89973 50.58203 34885 ft 524 kts 129°
2026-02-17 16:13 51.86248 50.68257 34914 ft 526 kts 131°
2026-02-17 16:13 51.82501 50.78339 34925 ft 524 kts 131°
2026-02-17 16:14 51.78745 50.88393 34949 ft 526 kts 131°
2026-02-17 16:14 51.73094 51.03457 34912 ft 525 kts 131°
2026-02-17 16:15 51.69326 51.13452 34995 ft 523 kts 131°
2026-02-17 16:15 51.65554 51.23411 34987 ft 523 kts 132°
2026-02-17 16:16 51.61774 51.33353 34971 ft 524 kts 132°
2026-02-17 16:16 51.57980 51.43292 34944 ft 523 kts 132°
2026-02-17 16:17 51.54189 51.53182 35009 ft 524 kts 132°
2026-02-17 16:17 51.50377 51.63103 34961 ft 524 kts 131°
2026-02-17 16:18 51.46559 51.73010 35008 ft 521 kts 133°
2026-02-17 16:19 51.40849 51.87709 34961 ft 522 kts 133°
2026-02-17 17:27 44.32316 61.51397 35077 ft 521 kts 159°
2026-02-17 17:27 44.25790 61.55720 35071 ft 522 kts 158°
2026-02-17 17:29 44.09464 61.66504 35068 ft 521 kts 159°
2026-02-17 17:29 44.02943 61.70788 35070 ft 522 kts 159°
2026-02-17 17:31 43.80006 61.85789 35050 ft 522 kts 159°
2026-02-17 17:32 43.70184 61.92171 35107 ft 523 kts 159°
2026-02-17 17:32 43.63589 61.96446 35057 ft 523 kts 158°
2026-02-17 17:33 43.57058 62.00672 35059 ft 523 kts 159°
2026-02-17 17:33 43.50453 62.04930 35103 ft 526 kts 158°
2026-02-17 17:34 43.44003 62.09642 35085 ft 527 kts 151°
2026-02-17 17:35 43.31809 62.20980 35100 ft 529 kts 148°
2026-02-17 17:35 43.25764 62.26653 35066 ft 529 kts 148°
2026-02-17 17:36 43.19709 62.32299 35114 ft 530 kts 147°
2026-02-17 17:36 43.13586 62.37985 35070 ft 531 kts 147°
2026-02-17 17:37 43.07492 62.43640 35108 ft 531 kts 147°
2026-02-17 17:37 43.01410 62.49266 35090 ft 531 kts 147°
2026-02-17 17:38 42.95279 62.54924 35100 ft 532 kts 147°
2026-02-17 17:38 42.86119 62.63358 35109 ft 532 kts 147°
2026-02-17 17:39 42.79965 62.69002 35095 ft 533 kts 148°
2026-02-17 17:39 42.73837 62.74604 35106 ft 534 kts 148°
2026-02-17 17:40 42.61518 62.85836 35130 ft 535 kts 148°
2026-02-17 17:41 42.49224 62.96992 35082 ft 537 kts 148°
2026-02-17 17:42 42.43013 63.02616 35092 ft 535 kts 148°
2026-02-17 17:43 42.33753 63.10947 35080 ft 537 kts 147°
2026-02-17 17:44 42.21340 63.22079 35118 ft 539 kts 148°
2026-02-17 17:44 42.15105 63.27649 35121 ft 540 kts 148°
2026-02-17 17:45 42.02603 63.38784 35107 ft 540 kts 147°
2026-02-17 17:47 41.83782 63.55459 35013 ft 541 kts 147°
2026-02-17 17:47 41.80637 63.58232 35163 ft 542 kts 147°
2026-02-17 17:47 41.77498 63.60995 35098 ft 541 kts 147°
2026-02-17 17:47 41.74351 63.63764 35237 ft 542 kts 147°
2026-02-17 17:48 41.71202 63.66537 35187 ft 541 kts 148°
2026-02-17 17:48 41.68055 63.69299 35059 ft 541 kts 148°
2026-02-17 17:48 41.64951 63.72021 35193 ft 541 kts 148°
2026-02-17 17:49 41.58671 63.77512 35139 ft 541 kts 148°
2026-02-17 17:49 41.52371 63.83019 35140 ft 540 kts 148°
2026-02-17 17:50 41.46088 63.88492 35120 ft 540 kts 147°
2026-02-17 17:50 41.36688 63.96653 35137 ft 540 kts 148°
2026-02-17 17:51 41.30416 64.02084 35138 ft 541 kts 148°
2026-02-17 17:51 41.24096 64.07546 35140 ft 541 kts 148°
2026-02-17 17:52 41.17803 64.12972 35133 ft 540 kts 147°
2026-02-17 17:53 41.08381 64.21073 35127 ft 540 kts 147°
2026-02-17 17:53 41.02094 64.26472 35165 ft 540 kts 147°
2026-02-17 17:54 40.95806 64.31850 35128 ft 540 kts 147°
2026-02-17 17:54 40.86374 64.39897 35134 ft 541 kts 147°
2026-02-17 17:55 40.80054 64.45277 35121 ft 541 kts 147°
2026-02-17 17:55 40.73731 64.50645 35142 ft 541 kts 147°
2026-02-17 17:56 40.67403 64.56002 35147 ft 544 kts 147°
2026-02-17 17:56 40.61057 64.61372 35150 ft 545 kts 147°
2026-02-17 17:57 40.54675 64.66749 35160 ft 545 kts 147°
2026-02-17 17:57 40.48324 64.72092 35047 ft 545 kts 147°
2026-02-17 17:58 40.41919 64.77476 35164 ft 547 kts 147°
2026-02-17 17:59 40.32298 64.85527 35113 ft 550 kts 147°
2026-02-17 17:59 40.25844 64.90910 35107 ft 549 kts 148°
2026-02-17 18:00 40.19443 64.96240 35111 ft 548 kts 148°
2026-02-17 18:00 40.12992 65.01598 35084 ft 551 kts 147°
2026-02-17 18:01 40.06551 65.06937 35093 ft 551 kts 148°
2026-02-17 18:01 40.03332 65.09603 35322 ft 552 kts 148°
2026-02-17 18:01 40.00097 65.12271 35256 ft 551 kts 147°
2026-02-17 18:02 39.93640 65.17590 35175 ft 550 kts 147°
2026-02-17 18:02 39.83955 65.25568 35151 ft 549 kts 146°
2026-02-17 18:03 39.77508 65.30853 35146 ft 548 kts 147°
2026-02-17 18:03 39.71051 65.36143 35149 ft 551 kts 147°
2026-02-17 18:04 39.64616 65.41399 35189 ft 551 kts 147°
2026-02-17 18:04 39.58139 65.46678 35171 ft 550 kts 146°
2026-02-17 18:05 39.51653 65.51959 35176 ft 553 kts 147°
2026-02-17 18:05 39.45143 65.57241 35158 ft 554 kts 147°
2026-02-17 18:06 39.38653 65.62495 35151 ft 556 kts 147°
2026-02-17 18:07 39.28797 65.70442 35193 ft 556 kts 148°
2026-02-17 18:07 39.22265 65.75697 35159 ft 558 kts 147°
2026-02-17 18:08 39.15699 65.80970 35088 ft 557 kts 147°
2026-02-17 18:08 39.09090 65.86281 35164 ft 558 kts 147°
2026-02-17 18:09 39.02494 65.91554 35150 ft 560 kts 147°
2026-02-17 18:09 38.95918 65.96798 35167 ft 560 kts 147°
2026-02-17 18:10 38.89289 66.02078 35119 ft 560 kts 148°
2026-02-17 18:10 38.79332 66.09982 35183 ft 564 kts 148°
2026-02-17 18:11 38.72670 66.15254 35158 ft 563 kts 147°
2026-02-17 18:11 38.66040 66.20505 35191 ft 564 kts 147°
2026-02-17 18:12 38.59372 66.25777 35173 ft 564 kts 147°
2026-02-17 18:12 38.52735 66.31109 35162 ft 565 kts 147°
2026-02-17 18:13 38.46125 66.36435 35238 ft 564 kts 146°
2026-02-17 18:13 38.39501 66.41757 35177 ft 564 kts 147°
2026-02-17 18:14 38.32859 66.47071 35168 ft 564 kts 146°
2026-02-17 18:15 38.22889 66.55032 35162 ft 565 kts 146°
2026-02-17 18:15 38.16219 66.60345 35178 ft 566 kts 147°
2026-02-17 18:16 38.09548 66.65633 35203 ft 566 kts 146°
2026-02-17 18:16 38.02910 66.70904 35232 ft 567 kts 146°
2026-02-17 18:17 37.96201 66.76171 35271 ft 567 kts 147°
2026-02-17 18:17 37.89479 66.81399 35208 ft 567 kts 146°
2026-02-17 18:18 37.82787 66.86597 35206 ft 567 kts 147°
2026-02-17 18:18 37.72739 66.94397 35217 ft 566 kts 146°
2026-02-17 18:19 37.69396 66.96994 34919 ft 566 kts 147°
2026-02-17 18:19 37.66037 66.99597 35222 ft 566 kts 147°
2026-02-17 18:19 37.62693 67.02177 35003 ft 566 kts 147°
2026-02-17 18:19 37.59330 67.04766 35070 ft 566 kts 146°
2026-02-17 18:20 37.52604 67.09956 35155 ft 566 kts 146°
2026-02-17 18:20 37.49293 67.12506 35374 ft 565 kts 147°
2026-02-17 18:20 37.45924 67.15099 35061 ft 563 kts 146°
2026-02-17 18:21 37.42614 67.17642 35254 ft 565 kts 147°
2026-02-17 18:21 37.39231 67.20242 35090 ft 566 kts 146°
2026-02-17 18:21 37.32525 67.25381 35162 ft 566 kts 146°
2026-02-17 18:22 37.29156 67.27964 35307 ft 567 kts 147°
2026-02-17 18:22 37.25801 67.30529 35110 ft 565 kts 146°
2026-02-17 18:23 37.15629 67.37956 35146 ft 567 kts 149°
2026-02-17 18:23 37.12178 67.40346 35252 ft 567 kts 149°
2026-02-17 18:23 37.08728 67.42738 35166 ft 566 kts 149°
2026-02-17 18:24 37.01859 67.47486 35087 ft 565 kts 148°
2026-02-17 18:24 36.94980 67.52250 35170 ft 566 kts 149°
2026-02-17 18:25 36.88084 67.57014 35302 ft 566 kts 149°
2026-02-17 18:25 36.81220 67.61742 35112 ft 564 kts 148°
2026-02-17 18:26 36.74394 67.66447 35303 ft 565 kts 149°
2026-02-17 18:26 36.70972 67.68805 35109 ft 566 kts 149°
2026-02-17 18:26 36.64074 67.73545 35269 ft 564 kts 149°
2026-02-17 18:27 36.57243 67.78232 35224 ft 562 kts 148°
2026-02-17 18:27 36.50446 67.82906 35243 ft 560 kts 149°
2026-02-17 18:28 36.43623 67.87582 35253 ft 561 kts 149°
2026-02-17 18:28 36.36780 67.92264 35249 ft 561 kts 149°
2026-02-17 18:29 36.29961 67.96920 35259 ft 561 kts 149°
2026-02-17 18:29 36.23122 68.01569 35266 ft 561 kts 148°
2026-02-17 18:30 36.16289 68.06223 35273 ft 561 kts 149°
2026-02-17 18:31 36.06078 68.13143 35271 ft 560 kts 149°
2026-02-17 18:31 35.99237 68.17768 35251 ft 559 kts 147°
2026-02-17 18:32 35.92437 68.22362 35276 ft 558 kts 149°
2026-02-17 18:32 35.85633 68.26952 35301 ft 557 kts 148°
2026-02-17 18:33 35.78890 68.31493 35335 ft 557 kts 148°
2026-02-17 18:33 35.72066 68.36074 35322 ft 556 kts 148°
2026-02-17 18:34 35.65281 68.40623 35326 ft 557 kts 148°
2026-02-17 18:34 35.55121 68.47393 35329 ft 555 kts 147°
2026-02-17 18:35 35.48341 68.51877 35342 ft 555 kts 148°
2026-02-17 18:35 35.41567 68.56345 35352 ft 556 kts 148°
2026-02-17 18:36 35.34756 68.60834 35352 ft 554 kts 148°
2026-02-17 18:36 35.27996 68.65291 35348 ft 555 kts 149°
2026-02-17 18:37 35.21159 68.69782 35363 ft 554 kts 149°
2026-02-17 18:37 35.14370 68.74235 35363 ft 555 kts 148°
2026-02-17 18:38 35.07580 68.78681 35348 ft 554 kts 149°
2026-02-17 18:39 34.94042 68.87523 35370 ft 554 kts 148°
2026-02-17 18:39 34.87277 68.91930 35346 ft 554 kts 149°
2026-02-17 18:40 34.80503 68.96327 35342 ft 554 kts 148°
2026-02-17 18:41 34.70293 69.02956 35336 ft 554 kts 148°
2026-02-17 18:41 34.63488 69.07359 35319 ft 553 kts 148°
2026-02-17 18:42 34.56903 69.12077 35307 ft 549 kts 139°
2026-02-17 18:42 34.49017 69.21706 35323 ft 531 kts 118°
2026-02-17 18:43 34.45367 69.29375 35339 ft 522 kts 109°
2026-02-17 18:43 34.42166 69.37144 35347 ft 519 kts 109°
2026-02-17 18:44 34.38914 69.44940 35362 ft 520 kts 109°
2026-02-17 18:44 34.35608 69.52733 35367 ft 520 kts 109°
2026-02-17 18:45 34.32310 69.60456 35360 ft 519 kts 110°
2026-02-17 18:45 34.29015 69.68151 35373 ft 519 kts 110°
2026-02-17 18:46 34.25686 69.75908 35374 ft 518 kts 110°
2026-02-17 18:47 34.20732 69.87434 35400 ft 516 kts 110°
2026-02-17 18:47 34.17428 69.95089 35391 ft 515 kts 110°
2026-02-17 18:48 34.14098 70.02718 35396 ft 515 kts 111°
2026-02-17 18:48 34.10746 70.10351 35388 ft 516 kts 111°
2026-02-17 18:49 34.07388 70.18009 35390 ft 515 kts 111°
2026-02-17 18:49 34.04050 70.25610 35328 ft 515 kts 111°
2026-02-17 18:50 34.00705 70.33199 35337 ft 515 kts 111°
2026-02-17 18:50 33.95034 70.44256 35323 ft 523 kts 120°
2026-02-17 18:51 33.90759 70.51335 35317 ft 523 kts 120°
2026-02-17 18:51 33.86506 70.58379 35326 ft 522 kts 120°
2026-02-17 18:52 33.82257 70.65453 35273 ft 522 kts 121°
2026-02-17 18:52 33.77999 70.72531 35283 ft 523 kts 121°
2026-02-17 18:53 33.73735 70.79608 35270 ft 523 kts 121°
2026-02-17 18:53 33.69500 70.86628 35302 ft 523 kts 122°
2026-02-17 18:54 33.65235 70.93684 35233 ft 522 kts 121°
2026-02-17 18:55 33.58842 71.04236 35174 ft 521 kts 122°
2026-02-17 18:55 33.54597 71.11226 35172 ft 521 kts 122°
2026-02-17 18:56 33.50314 71.18267 35148 ft 522 kts 122°
2026-02-17 18:56 33.46057 71.25240 35151 ft 521 kts 122°
2026-02-17 18:57 33.41774 71.32257 35117 ft 521 kts 122°
2026-02-17 18:57 33.37524 71.39194 35137 ft 522 kts 122°
2026-02-17 18:58 33.33246 71.46175 35134 ft 520 kts 122°
2026-02-17 18:58 33.26795 71.56666 35141 ft 522 kts 122°
2026-02-17 18:59 33.22529 71.63598 35082 ft 523 kts 123°
2026-02-17 18:59 33.18227 71.70563 35091 ft 521 kts 123°
2026-02-17 19:00 33.13926 71.77518 35090 ft 522 kts 123°
2026-02-17 19:00 33.09627 71.84456 35073 ft 523 kts 123°
2026-02-17 19:01 33.05310 71.91411 35070 ft 522 kts 124°
2026-02-17 19:01 33.00977 71.98376 35071 ft 522 kts 124°
2026-02-17 19:02 32.96676 72.05280 35070 ft 522 kts 124°
2026-02-17 19:03 32.90202 72.15649 35054 ft 522 kts 124°
2026-02-17 19:03 32.85867 72.22567 35083 ft 520 kts 124°
2026-02-17 19:04 32.81556 72.29441 35110 ft 521 kts 124°
2026-02-17 19:04 32.77217 72.36350 35085 ft 521 kts 124°
2026-02-17 19:05 32.72899 72.43211 35112 ft 521 kts 124°
2026-02-17 19:05 32.68568 72.50080 35140 ft 520 kts 124°
2026-02-17 19:06 32.64237 72.56934 35109 ft 519 kts 125°
2026-02-17 19:06 32.57766 72.67152 35058 ft 519 kts 126°
2026-02-17 19:07 32.53447 72.73959 35060 ft 517 kts 126°
2026-02-17 19:08 32.46952 72.84170 35035 ft 518 kts 126°
2026-02-17 19:08 32.42639 72.90934 35024 ft 516 kts 126°
2026-02-17 19:09 32.38282 72.97753 35024 ft 518 kts 126°
2026-02-17 19:09 32.33969 73.04495 35042 ft 517 kts 126°
2026-02-17 19:10 32.29623 73.11276 35069 ft 517 kts 126°
2026-02-17 19:10 32.23122 73.21397 35027 ft 517 kts 126°
2026-02-17 19:11 32.18808 73.28101 35040 ft 515 kts 127°
2026-02-17 19:11 32.14458 73.34843 35045 ft 516 kts 127°
2026-02-17 19:12 32.10125 73.41544 35033 ft 515 kts 127°
2026-02-17 19:12 32.05783 73.48253 34998 ft 515 kts 127°
2026-02-17 19:13 32.01457 73.54932 35017 ft 513 kts 127°
2026-02-17 19:13 31.97112 73.61621 35019 ft 512 kts 127°
2026-02-17 19:14 31.92798 73.68252 35018 ft 512 kts 128°
2026-02-17 19:15 31.86293 73.78224 35012 ft 513 kts 128°
2026-02-17 19:15 31.81945 73.84879 35042 ft 514 kts 128°
2026-02-17 19:16 31.77608 73.91505 35059 ft 511 kts 128°
2026-02-17 19:16 31.73267 73.98127 35048 ft 511 kts 129°
2026-02-17 19:17 31.68908 74.04760 35027 ft 512 kts 129°
2026-02-17 19:17 31.64578 74.11342 35072 ft 511 kts 128°
2026-02-17 19:18 31.60243 74.17921 35062 ft 512 kts 129°
2026-02-17 19:18 31.53695 74.27837 35049 ft 513 kts 129°
2026-02-17 19:19 31.49337 74.34423 35089 ft 511 kts 129°
2026-02-17 19:19 31.44963 74.41025 35048 ft 514 kts 129°
2026-02-17 19:20 31.40583 74.47621 35073 ft 513 kts 129°
2026-02-17 19:20 31.36203 74.54145 35051 ft 512 kts 132°
2026-02-17 19:21 31.31358 74.60207 35022 ft 509 kts 139°
2026-02-17 19:21 31.26197 74.65868 35036 ft 509 kts 140°
2026-02-17 19:22 31.21020 74.71523 35023 ft 509 kts 140°
2026-02-17 19:23 31.13308 74.79973 35007 ft 508 kts 141°
2026-02-17 19:23 31.08131 74.85640 35049 ft 508 kts 140°
2026-02-17 19:24 31.02976 74.91275 35025 ft 507 kts 141°
2026-02-17 19:24 30.97829 74.96890 35046 ft 507 kts 140°
2026-02-17 19:25 30.92685 75.02509 35023 ft 507 kts 141°
2026-02-17 19:25 30.87520 75.08102 35018 ft 506 kts 142°
2026-02-17 19:26 30.81970 75.13085 35033 ft 501 kts 152°
2026-02-17 19:26 30.72833 75.18566 35021 ft 490 kts 165°
2026-02-17 19:27 30.66363 75.21065 35037 ft 488 kts 168°
2026-02-17 19:27 30.59943 75.23404 35044 ft 485 kts 168°
2026-02-17 19:28 30.53510 75.25762 35014 ft 484 kts 168°
2026-02-17 19:28 30.47084 75.28126 35013 ft 485 kts 168°
2026-02-17 19:29 30.40620 75.30499 35014 ft 484 kts 168°
2026-02-17 19:29 30.34205 75.32713 35015 ft 480 kts 173°
2026-02-17 19:30 30.27663 75.34338 35030 ft 478 kts 175°
2026-02-17 19:31 30.17863 75.36710 35018 ft 477 kts 174°
2026-02-17 19:31 30.11399 75.38313 34995 ft 479 kts 175°
2026-02-17 19:32 30.04875 75.39944 35020 ft 478 kts 174°
2026-02-17 19:32 29.98369 75.41576 35016 ft 477 kts 175°
2026-02-17 19:33 29.91891 75.43198 35009 ft 477 kts 175°
2026-02-17 19:33 29.85365 75.44831 35022 ft 475 kts 175°
2026-02-17 19:34 29.78929 75.46437 35014 ft 475 kts 175°
2026-02-17 19:34 29.69182 75.48868 35039 ft 477 kts 175°
2026-02-17 19:35 29.62692 75.50486 35003 ft 475 kts 175°
2026-02-17 19:35 29.56216 75.52097 35015 ft 475 kts 176°
2026-02-17 19:36 29.49775 75.53696 35018 ft 475 kts 175°
2026-02-17 19:36 29.43271 75.55308 35020 ft 475 kts 176°
2026-02-17 19:37 29.36848 75.56900 35018 ft 474 kts 176°
2026-02-17 19:37 29.30352 75.58504 35009 ft 474 kts 176°
2026-02-17 19:38 29.23887 75.60103 35001 ft 476 kts 176°
2026-02-17 19:39 29.14194 75.62494 35011 ft 476 kts 176°
2026-02-17 19:39 29.07734 75.64088 35007 ft 474 kts 176°
2026-02-17 19:40 29.01299 75.65670 34995 ft 474 kts 177°
2026-02-17 19:40 28.94837 75.67255 35003 ft 475 kts 177°
2026-02-17 19:41 28.88386 75.68838 35018 ft 474 kts 177°
2026-02-17 19:41 28.82105 75.70378 35005 ft 475 kts 177°
2026-02-17 19:42 28.75661 75.71954 35013 ft 472 kts 177°
2026-02-17 19:42 28.66005 75.74317 35013 ft 475 kts 177°
2026-02-17 19:43 28.59590 75.75881 35015 ft 474 kts 177°
2026-02-17 19:43 28.53124 75.77454 35015 ft 474 kts 177°
2026-02-17 19:44 28.46676 75.79024 35023 ft 474 kts 177°
2026-02-17 19:44 28.40201 75.80598 35032 ft 473 kts 177°
2026-02-17 19:45 28.33749 75.82165 35023 ft 473 kts 177°
2026-02-17 19:45 28.27305 75.83728 35015 ft 472 kts 178°
2026-02-17 19:46 28.20899 75.85279 35027 ft 472 kts 178°
2026-02-17 19:47 28.11236 75.87611 35032 ft 475 kts 177°
2026-02-17 19:47 28.04783 75.89170 35040 ft 475 kts 177°
2026-02-17 19:48 27.98302 75.90736 35038 ft 472 kts 177°
2026-02-17 19:48 27.91904 75.92277 35053 ft 472 kts 178°
2026-02-17 19:49 27.85471 75.93823 35039 ft 473 kts 178°
2026-02-17 19:49 27.79005 75.95373 35048 ft 472 kts 178°
2026-02-17 19:49 27.75798 75.96143 34943 ft 473 kts 177°
2026-02-17 19:50 27.72596 75.96912 34981 ft 474 kts 177°
2026-02-17 19:50 27.62907 75.99233 35148 ft 473 kts 177°
2026-02-17 19:51 27.56518 76.00764 34964 ft 471 kts 177°
2026-02-17 19:51 27.50089 76.02298 34910 ft 472 kts 178°
2026-02-17 19:52 27.46883 76.03064 35096 ft 470 kts 178°
2026-02-17 19:52 27.43655 76.03835 35043 ft 470 kts 178°
2026-02-17 19:52 27.37244 76.05363 35036 ft 471 kts 177°
2026-02-17 19:53 27.30838 76.06888 35049 ft 471 kts 178°
2026-02-17 19:53 27.24431 76.08411 35001 ft 469 kts 178°
2026-02-17 19:54 27.18004 76.09934 35026 ft 471 kts 177°
2026-02-17 19:55 27.08397 76.12216 35028 ft 469 kts 177°
2026-02-17 19:55 27.02027 76.13726 35030 ft 467 kts 178°
2026-02-17 19:56 26.95662 76.15230 35042 ft 467 kts 177°
2026-02-17 19:56 26.89295 76.16737 35041 ft 466 kts 178°
2026-02-17 19:57 26.82925 76.18237 35010 ft 468 kts 177°
2026-02-17 19:57 26.76533 76.19744 35007 ft 468 kts 178°
2026-02-17 19:58 26.70182 76.21240 34986 ft 466 kts 177°
2026-02-17 19:58 26.60612 76.23489 35036 ft 467 kts 177°
2026-02-17 19:59 26.54231 76.24988 35007 ft 468 kts 177°
2026-02-17 19:59 26.47851 76.26487 35002 ft 466 kts 177°
2026-02-17 20:00 26.41528 76.27966 35013 ft 467 kts 177°
2026-02-17 20:00 26.35127 76.29464 34989 ft 468 kts 177°
2026-02-17 20:01 26.28771 76.30950 34986 ft 467 kts 177°
2026-02-17 20:01 26.22403 76.32439 35011 ft 468 kts 177°
2026-02-17 20:02 26.16029 76.33928 35011 ft 465 kts 177°
2026-02-17 20:03 26.06540 76.36136 34995 ft 465 kts 177°
2026-02-17 20:03 26.00180 76.37620 35002 ft 465 kts 177°
2026-02-17 20:04 25.93863 76.39089 34965 ft 464 kts 177°
2026-02-17 20:04 25.87583 76.40895 35014 ft 471 kts 171°
2026-02-17 20:05 25.81333 76.43119 34968 ft 471 kts 171°
2026-02-17 20:05 25.75045 76.45362 34998 ft 472 kts 171°
2026-02-17 20:06 25.68799 76.47592 35003 ft 473 kts 171°
2026-02-17 20:06 25.59444 76.50922 34982 ft 473 kts 171°
2026-02-17 20:07 25.53127 76.53168 34984 ft 473 kts 171°
2026-02-17 20:07 25.46864 76.55392 34987 ft 474 kts 171°
2026-02-17 20:08 25.40616 76.57612 35006 ft 470 kts 171°
2026-02-17 20:08 25.34379 76.59818 34976 ft 473 kts 171°
2026-02-17 20:09 25.28073 76.62049 34964 ft 473 kts 171°
2026-02-17 20:09 25.21816 76.64260 34990 ft 473 kts 171°
2026-02-17 20:10 25.15547 76.66480 35015 ft 473 kts 171°
2026-02-17 20:11 25.06147 76.69799 34990 ft 473 kts 171°
2026-02-17 20:11 24.99885 76.72005 35004 ft 472 kts 171°
2026-02-17 20:12 24.93603 76.74253 35010 ft 473 kts 171°
2026-02-17 20:12 24.87353 76.76506 34992 ft 473 kts 171°
2026-02-17 20:13 24.81081 76.78766 35008 ft 474 kts 171°
2026-02-17 20:13 24.74793 76.81027 35023 ft 474 kts 171°
2026-02-17 20:14 24.68553 76.83269 34999 ft 473 kts 171°
2026-02-17 20:14 24.59130 76.86648 34999 ft 474 kts 171°
2026-02-17 20:15 24.52856 76.88899 35004 ft 474 kts 171°
2026-02-17 20:15 24.46579 76.91067 35005 ft 469 kts 173°
2026-02-17 20:16 24.40280 76.92584 35022 ft 462 kts 180°
2026-02-17 20:16 24.33910 76.93355 35010 ft 455 kts 185°
2026-02-17 20:17 24.27586 76.93641 35000 ft 453 kts 186°
2026-02-17 20:17 24.21254 76.93912 35000 ft 455 kts 186°
2026-02-17 20:18 24.14915 76.94189 35013 ft 455 kts 186°
2026-02-17 20:19 24.05407 76.94604 34995 ft 456 kts 186°
2026-02-17 20:19 23.99069 76.94879 35015 ft 457 kts 186°
2026-02-17 20:20 23.92719 76.95155 35004 ft 457 kts 186°
2026-02-17 20:20 23.86322 76.95432 34995 ft 459 kts 185°
2026-02-17 20:21 23.79936 76.95713 35011 ft 460 kts 186°
2026-02-17 20:21 23.73555 76.95992 35018 ft 459 kts 185°
2026-02-17 20:22 23.67161 76.96272 35010 ft 458 kts 186°
2026-02-17 20:22 23.57536 76.96687 35010 ft 460 kts 185°
2026-02-17 20:23 23.51148 76.96965 35015 ft 460 kts 185°
2026-02-17 20:23 23.44734 76.97241 35015 ft 461 kts 185°
2026-02-17 20:24 23.38324 76.97522 35012 ft 462 kts 185°
2026-02-17 20:24 23.31895 76.97800 35018 ft 463 kts 185°
2026-02-17 20:25 23.25445 76.98079 35031 ft 463 kts 185°
2026-02-17 20:25 23.18972 76.98409 35012 ft 466 kts 182°
2026-02-17 20:26 23.12498 76.99322 35000 ft 472 kts 176°
2026-02-17 20:27 23.02819 77.01729 35000 ft 477 kts 174°
2026-02-17 20:27 22.96382 77.03395 34998 ft 475 kts 173°
2026-02-17 20:28 22.89933 77.05057 34990 ft 476 kts 173°
2026-02-17 20:28 22.80238 77.07551 34984 ft 475 kts 173°
2026-02-17 20:29 22.73791 77.09206 34985 ft 475 kts 173°
2026-02-17 20:29 22.67362 77.10854 34989 ft 474 kts 174°
2026-02-17 20:30 22.60953 77.12498 34991 ft 474 kts 173°
2026-02-17 20:31 22.51303 77.14969 34974 ft 474 kts 173°
2026-02-17 20:31 22.44860 77.16619 34977 ft 473 kts 174°
2026-02-17 20:32 22.38419 77.18263 34980 ft 473 kts 173°
2026-02-17 20:32 22.32043 77.19899 34968 ft 473 kts 173°
2026-02-17 20:33 22.25600 77.21560 34975 ft 473 kts 173°
2026-02-17 20:33 22.19201 77.23209 34983 ft 473 kts 173°
2026-02-17 20:34 22.12819 77.24857 34991 ft 472 kts 173°
2026-02-17 20:34 22.03228 77.27323 35010 ft 472 kts 173°
2026-02-17 20:35 21.96815 77.28972 35013 ft 471 kts 173°
2026-02-17 20:35 21.90436 77.30608 35008 ft 471 kts 173°
2026-02-17 20:36 21.84051 77.32249 35001 ft 472 kts 173°
2026-02-17 20:36 21.77672 77.33884 34996 ft 471 kts 173°
2026-02-17 20:37 21.71289 77.35521 34996 ft 471 kts 173°
2026-02-17 20:37 21.64905 77.37157 35004 ft 471 kts 173°